[[{"header":{"parameterUnit":"m.s-1","parameterCategory":1,"la1":30.2991,"la2":30.254,"lo1":-89.0895,"lo2":-89.0444,"dy":0.0017,"dx":0.0017,"nx":28,"ny":28,"refTime":"2025-03-23T21:00:00:Z","depth":0,"parameterNumber":2,"parameterNumberName":"U-component_of_WINDS"},"data":[0,0,0,0,0,0,0,0,0,0,0,0,0,0,0,0,0,0,0,0,0,0,0,0,0,0,0,0,0,0,0,0,0,0,0,0,0,0,0,0,0,0,0,0,0,0,0,0,0,0,0,0,0,0,0,0,0,0,1.8971,1.8972,0,1.9099,1.91,1.9101,1.914,1.914,1.9139,1.9138,1.9272,1.9276,1.928,0,0,0,0,0,0,0,0,0,0,0,0,0,1.8762,1.8766,1.8971,1.8972,1.8974,1.9098,1.91,1.9102,1.914,1.914,1.9139,1.9138,1.9271,1.9276,1.928,0,0,0,0,0,0,0,0,0,0,0,0,0,1.8868,1.8767,1.897,1.9008,1.9013,1.9098,1.91,1.9102,1.9141,1.914,1.9139,1.9138,1.9269,1.9275,1.9281,1.9339,0,0,1.93,1.9303,0,0,0,0,0,0,0,0,1.8862,1.8875,1.9001,1.9006,1.9011,1.9102,1.9076,1.9182,1.9141,1.9092,1.9138,1.9137,1.9217,1.9227,1.9253,1.9345,1.9351,1.9301,1.9305,1.9307,1.9309,0,0,0,0,0,0,0,1.8854,1.887,1.9021,1.9003,1.9009,1.9019,1.9033,1.9096,1.9158,1.9096,1.9099,1.9114,1.9219,1.9247,1.9257,1.9353,1.9301,1.9306,1.931,1.9312,1.9499,1.95,0,0,0,0,0,0,1.884,1.8864,1.9017,1.9025,1.8932,1.9024,1.9039,1.9074,1.9158,1.9169,1.9115,1.9115,1.9237,1.9249,1.9261,1.9335,1.9307,1.9313,1.9317,1.9498,1.95,1.9501,0,0,0,0,0,0,1.8836,1.8854,1.9012,1.8945,1.8966,1.9028,1.9067,1.9077,1.9105,1.9171,1.9183,1.9132,1.9237,1.9253,1.9319,1.934,1.9316,1.9321,1.9497,1.9499,1.95,1.9482,0,0,0,0,0,0,1.8829,1.8852,1.8874,1.8945,1.897,1.9067,1.9068,1.908,1.9115,1.9118,1.919,1.9202,1.9237,1.931,1.9325,1.9348,1.9326,1.9495,1.9497,1.95,1.9481,1.9483,1.9484,0,0,0,0,0,1.8822,1.8864,1.8875,1.8893,1.8998,1.9068,1.9082,1.9121,1.9117,1.914,1.9183,1.9199,1.9335,1.9316,1.9334,1.9359,1.9494,1.9497,1.9499,1.948,1.9482,1.9484,0,0,0,0,0,0,1.8794,1.8874,1.8887,1.8953,1.9003,1.9074,1.9105,1.9122,1.9176,1.9175,1.9223,1.9239,1.9302,1.9338,1.9315,1.942,1.9415,1.9422,1.9394,1.9397,1.9399,1.9389,1.9332,0,0,0,0,0,1.8795,1.8844,1.8912,1.8964,1.8988,1.9042,1.9074,1.91,1.9154,1.9176,1.9223,1.9276,1.9331,1.9366,1.942,1.9486,1.9503,1.9512,1.9514,1.9515,1.952,1.9558,1.9563,1.951,1.951,1.951,0,0,1.8798,1.8848,1.8877,1.8959,1.9001,1.9052,1.906,1.9113,1.9151,1.9184,1.925,1.9287,1.9349,1.9415,1.9447,1.9447,1.9538,1.9519,1.9519,1.9524,1.9561,1.9566,1.9571,1.9512,1.9512,1.9511,0,0,1.8831,1.8873,1.8921,1.8963,1.9026,1.9062,1.9073,1.9142,1.9167,1.9234,1.926,1.9306,1.9399,1.9442,1.9477,1.9525,1.9543,1.9542,1.9551,1.9587,1.9592,1.9596,1.9613,1.9619,1.9546,1.9546,1.9546,0,1.8827,1.8904,1.8944,1.8996,1.9032,1.9063,1.9112,1.9151,1.9229,1.9254,1.9252,1.9369,1.9413,1.9491,1.9502,1.9529,1.9544,1.9534,1.9588,1.9592,1.9596,1.9614,1.962,1.9546,1.9546,1.9546,1.9546,0,1.8897,1.8949,1.8981,1.9054,1.9094,1.9144,1.9192,1.9228,1.925,1.9286,1.9353,1.9407,1.9473,1.9493,1.9516,1.9574,1.9572,1.9578,1.9575,1.96,1.9617,1.9624,1.9545,1.9545,1.9545,1.9546,0,0,1.8915,1.901,1.902,1.9054,1.9126,1.9168,1.922,1.9284,1.9313,1.9366,1.9411,1.9489,1.9495,1.9534,1.9562,1.9594,1.963,1.9597,1.9599,1.9601,1.9697,1.9692,1.9699,1.9641,1.9643,1.9644,1.9692,0,1.8956,1.905,1.9087,1.9163,1.9213,1.9243,1.9289,1.9338,1.9373,1.9421,1.946,1.9514,1.9519,1.9542,1.9575,1.9618,1.9649,1.9615,1.9685,1.9687,1.9668,1.9708,1.9702,1.9745,1.9699,1.97,1.9701,0,1.9017,1.9069,1.915,1.9216,1.9238,1.9278,1.934,1.9384,1.9442,1.9465,1.9508,1.9534,1.9591,1.9583,1.9662,1.9638,1.9669,1.9694,1.9697,1.9705,1.9695,1.9717,1.976,1.9766,1.9712,1.9711,1.971,0,1.9022,1.9113,1.9173,1.9201,1.928,1.9307,1.9342,1.9398,1.9433,1.9487,1.9511,1.9571,1.9603,1.9649,1.9691,1.9682,1.9767,1.9763,1.9788,1.9787,1.9805,1.9803,1.9853,1.9824,1.9824,1.9824,1.9824,0,1.9065,1.9113,1.9177,1.9213,1.9268,1.9312,1.9365,1.9402,1.9451,1.9497,1.9527,1.9569,1.9622,1.9671,1.9704,1.9764,1.9779,1.98,1.9808,1.9797,1.9795,1.9818,1.9816,1.9826,1.9825,1.9825,1.9825,0,1.908,1.9124,1.9192,1.9261,1.9279,1.9317,1.9376,1.9413,1.945,1.9506,1.9522,1.9579,1.9639,1.9685,1.9762,1.9785,1.9848,1.9858,1.9829,1.9833,1.9856,1.9853,1.9923,1.9934,1.9897,1.9898,1.9898,0,1.9104,1.9142,1.9215,1.9246,1.928,1.9331,1.9368,1.9412,1.9449,1.9517,1.9546,1.9607,1.9658,1.9751,1.98,1.986,1.9871,1.9891,1.988,1.9868,1.9871,1.9868,1.9873,1.9892,1.9892,1.9893,1.9893,0,1.9143,1.9163,1.9213,1.9272,1.9314,1.9363,1.9412,1.9437,1.949,1.953,1.959,1.963,1.9708,1.9769,1.9833,1.987,1.989,1.9896,1.9905,1.9894,1.9876,1.9886,1.9832,1.9894,1.9894,1.9894,1.9894,1.9894,1.9163,1.9198,1.9255,1.931,1.9352,1.9397,1.9436,1.9476,1.9527,1.9594,1.9617,1.9679,1.9736,1.9825,1.9861,1.9911,1.9912,1.9926,1.9929,1.9931,1.993,1.9868,1.9923,1.9923,1.9923,1.9923,1.9923,0,1.9203,1.9241,1.9292,1.9359,1.9403,1.9418,1.9473,1.9509,1.9563,1.9614,1.9664,1.9733,1.9792,1.9845,1.9907,1.9937,1.9948,1.9951,1.995,1.9958,1.9926,1.9912,1.9941,1.9941,1.9941,1.9941,1.9941,1.9941,1.9229,1.9289,1.9316,1.9397,1.9435,1.9495,1.9525,1.9568,1.9608,1.9684,1.9733,1.9767,1.9819,1.9885,1.994,1.9954,1.9975,1.9977,1.9993,1.9962,1.996,1.9958,1.9945,1.9981,1.9981,2.0021,2.0022,2.0022]},{"header":{"parameterUnit":"m.s-1","parameterCategory":1,"la1":30.2991,"la2":30.254,"lo1":-89.0895,"lo2":-89.0444,"dy":0.0017,"dx":0.0017,"nx":28,"ny":28,"refTime":"2025-03-23T21:00:00:Z","depth":0,"parameterNumber":3,"parameterNumberName":"V-component_of_WINDS"},"data":[0,0,0,0,0,0,0,0,0,0,0,0,0,0,0,0,0,0,0,0,0,0,0,0,0,0,0,0,0,0,0,0,0,0,0,0,0,0,0,0,0,0,0,0,0,0,0,0,0,0,0,0,0,0,0,0,0,0,2.3574,2.3576,0,2.3698,2.3699,2.3701,2.3751,2.3751,2.3751,2.3751,2.3873,2.3877,2.388,0,0,0,0,0,0,0,0,0,0,0,0,0,2.338,2.3383,2.3574,2.3576,2.3577,2.3698,2.3699,2.3701,2.3751,2.3751,2.3751,2.375,2.3872,2.3876,2.388,0,0,0,0,0,0,0,0,0,0,0,0,0,2.3479,2.3384,2.3574,2.3617,2.3622,2.3697,2.3699,2.3701,2.3751,2.3751,2.3751,2.375,2.3871,2.3876,2.3881,2.3921,0,0,2.3897,2.3899,0,0,0,0,0,0,0,0,2.3474,2.3487,2.3609,2.3614,2.362,2.3709,2.3676,2.3775,2.3752,2.3702,2.3751,2.375,2.3819,2.3828,2.3852,2.3927,2.3932,2.3898,2.3901,2.3903,2.3904,0,0,0,0,0,0,0,2.3467,2.3482,2.3623,2.3611,2.3618,2.3629,2.3643,2.3695,2.3761,2.3707,2.3711,2.3725,2.3822,2.3847,2.3855,2.3934,2.3897,2.3902,2.3905,2.3907,2.4049,2.405,0,0,0,0,0,0,2.3453,2.3475,2.3619,2.3627,2.3545,2.3633,2.3649,2.3681,2.3761,2.3772,2.3725,2.3727,2.3838,2.3849,2.386,2.3913,2.3903,2.3908,2.3911,2.4048,2.4049,2.405,0,0,0,0,0,0,2.3449,2.3466,2.3614,2.3552,2.3572,2.3637,2.3673,2.3683,2.3709,2.3775,2.3786,2.3739,2.3838,2.3852,2.3906,2.3918,2.391,2.3915,2.4048,2.4049,2.4049,2.4019,0,0,0,0,0,0,2.3443,2.3464,2.348,2.3552,2.3575,2.3659,2.3673,2.3686,2.3718,2.3722,2.3791,2.3802,2.3839,2.3898,2.3911,2.3925,2.3919,2.4047,2.4048,2.4049,2.402,2.4019,2.4019,0,0,0,0,0,2.3436,2.3466,2.3481,2.3498,2.3598,2.366,2.3673,2.3716,2.3719,2.3736,2.3778,2.3799,2.3914,2.3903,2.3918,2.3934,2.4046,2.4048,2.4049,2.402,2.4019,2.4019,0,0,0,0,0,0,2.3392,2.3476,2.3494,2.3548,2.3596,2.3668,2.3691,2.3714,2.3762,2.3763,2.3813,2.3829,2.3878,2.3911,2.3897,2.3978,2.3982,2.3986,2.3954,2.3954,2.3954,2.3945,2.3924,0,0,0,0,0,2.3388,2.3433,2.3504,2.3545,2.3568,2.3625,2.3654,2.3683,2.3735,2.3756,2.3802,2.385,2.3898,2.3928,2.3975,2.4024,2.404,2.4043,2.4042,2.4042,2.4045,2.4075,2.4077,2.4054,2.4054,2.4054,0,0,2.3382,2.3433,2.3458,2.3537,2.3578,2.3623,2.3642,2.3688,2.3722,2.3762,2.3817,2.3852,2.391,2.3962,2.3987,2.3991,2.4055,2.4043,2.4042,2.4046,2.4076,2.4079,2.408,2.4055,2.4055,2.4055,0,0,2.3393,2.3436,2.3476,2.3517,2.358,2.3618,2.3627,2.3696,2.3721,2.3777,2.3809,2.3848,2.3928,2.3969,2.4,2.4027,2.4048,2.404,2.4038,2.4067,2.4069,2.4071,2.4081,2.4084,2.4043,2.4043,2.4043,0,2.3376,2.3446,2.3493,2.3538,2.3572,2.3612,2.3653,2.369,2.3764,2.3786,2.3789,2.3892,2.3933,2.3996,2.4003,2.4026,2.4038,2.4033,2.4065,2.4067,2.407,2.408,2.4084,2.4042,2.4042,2.4042,2.4042,0,2.3423,2.3471,2.3495,2.3568,2.3604,2.3646,2.3699,2.373,2.3756,2.3793,2.385,2.3901,2.396,2.3976,2.4001,2.4043,2.4044,2.4055,2.4061,2.407,2.4081,2.4085,2.404,2.4041,2.4041,2.4041,0,0,2.341,2.3509,2.3517,2.3551,2.3623,2.3661,2.3704,2.3764,2.379,2.3839,2.3877,2.3945,2.3957,2.3991,2.4021,2.4046,2.4066,2.4055,2.4057,2.4056,2.4116,2.4107,2.4111,2.408,2.4081,2.4082,2.4111,0,2.3431,2.3514,2.3557,2.3621,2.3666,2.3705,2.3743,2.3791,2.3827,2.387,2.3909,2.3957,2.3968,2.3989,2.4016,2.4058,2.4079,2.4056,2.4116,2.4118,2.4102,2.4117,2.4108,2.4133,2.4116,2.4117,2.4117,0,2.3468,2.3519,2.3587,2.3656,2.3676,2.371,2.3768,2.3809,2.3864,2.3888,2.3928,2.3958,2.4005,2.4007,2.4073,2.4057,2.4084,2.4108,2.411,2.4118,2.4119,2.4126,2.4142,2.4146,2.4124,2.4124,2.4123,0,2.3452,2.3538,2.3591,2.3618,2.3699,2.3722,2.3757,2.3812,2.3845,2.3895,2.3917,2.3971,2.4001,2.4042,2.4086,2.4083,2.4148,2.4153,2.417,2.4169,2.4182,2.4181,2.4204,2.4198,2.4198,2.4198,2.4198,0,2.3472,2.3513,2.3585,2.3617,2.3664,2.3714,2.3758,2.3795,2.3844,2.3884,2.392,2.3956,2.4012,2.4055,2.4089,2.4139,2.4152,2.4173,2.4181,2.417,2.4168,2.4189,2.4189,2.4199,2.4198,2.4198,2.4198,0,2.3463,2.3513,2.3574,2.3646,2.3665,2.3696,2.3758,2.379,2.3828,2.3878,2.3893,2.3952,2.4005,2.4053,2.4122,2.4145,2.4196,2.4206,2.4178,2.4183,2.4198,2.4196,2.4236,2.4244,2.4231,2.4231,2.4231,0,2.3473,2.3506,2.3582,2.3613,2.3647,2.3695,2.3729,2.3779,2.3813,2.3879,2.3904,2.396,2.4007,2.4089,2.4138,2.4191,2.4204,2.4214,2.4212,2.42,2.4205,2.4203,2.4207,2.4214,2.4214,2.4214,2.4213,0,2.3486,2.351,2.3559,2.3617,2.3658,2.3705,2.3754,2.3776,2.3835,2.3871,2.3927,2.3963,2.4035,2.409,2.4149,2.4184,2.4209,2.4214,2.4221,2.421,2.4193,2.4203,2.4178,2.4213,2.4213,2.4213,2.4213,2.4213,2.3488,2.3519,2.3579,2.3632,2.3675,2.3719,2.3754,2.3797,2.3845,2.3908,2.3934,2.3991,2.4046,2.4128,2.4163,2.4207,2.4212,2.4221,2.4224,2.4226,2.4225,2.4185,2.4218,2.4218,2.4218,2.4218,2.4218,0,2.3504,2.3544,2.3593,2.3661,2.3703,2.3724,2.3779,2.3813,2.3863,2.3913,2.3959,2.4023,2.4077,2.413,2.4187,2.4212,2.4225,2.4225,2.4224,2.4232,2.4216,2.4205,2.4214,2.4214,2.4214,2.4214,2.4214,2.4214,2.3517,2.3571,2.3602,2.3678,2.3718,2.3775,2.3805,2.3846,2.3887,2.3957,2.4002,2.4037,2.4089,2.415,2.42,2.4214,2.4233,2.4231,2.4248,2.4233,2.4233,2.4233,2.4223,2.4234,2.4234,2.426,2.426,2.4261]}]]